Wind_Speed
51 53 55 56 57 57 57 56 55 53 51 49 48 47 48 49 50 51 51 51 51 51 51 51 51 52 53 53 53 53 53 52 53 55 56 57 58 57 56 56 56 55 56 57 57 57 57 58 60 59 57 56 55 55 55 53 50 50 50 51 51 52 53
53 55 56 57 58 57 57 56 54 52 51 50 49 48 49 51 51 50 50 50 51 51 51 51 51 52 53 54 55 54 54 52 50 50 51 54 58 58 58 58 57 56 56 58 59 60 60 60 61 60 59 58 58 57 56 53 50 50 50 51 51 52 53
55 56 58 59 58 58 57 55 52 51 50 50 49 50 51 52 51 49 48 49 50 50 50 50 50 51 52 53 54 55 55 53 52 51 49 49 52 56 59 59 59 58 59 61 62 62 61 60 60 59 58 57 57 56 55 54 53 52 52 52 53 53 53
57 58 60 59 59 58 56 53 50 50 50 50 50 51 52 52 50 48 47 47 48 49 49 49 49 48 49 51 53 55 55 54 53 53 51 46 44 48 53 56 59 60 61 61 61 60 58 57 56 56 55 55 55 55 55 55 54 54 54 54 54 55 55
59 60 60 60 59 57 53 51 49 50 51 51 51 52 51 50 48 47 47 47 46 47 47 47 46 46 45 47 50 52 54 55 54 54 54 51 47 45 45 47 51 53 55 55 55 54 53 52 51 52 53 54 55 54 54 54 54 54 55 55 55 55 56
60 61 61 60 58 54 51 50 50 51 51 52 51 51 49 47 46 46 46 46 45 45 46 46 45 44 44 45 46 48 51 54 55 54 54 55 54 51 46 44 44 45 46 47 48 49 49 48 49 51 52 53 53 53 53 53 53 53 54 54 54 55 55
61 61 60 58 55 52 51 51 51 51 51 51 50 48 47 45 45 45 44 44 43 43 43 43 42 42 42 43 44 44 45 48 51 53 54 54 54 54 51 48 46 45 45 46 47 47 48 48 49 50 51 51 51 51 51 51 52 53 53 54 55 55 55
61 60 57 55 53 52 51 51 50 50 49 49 48 46 44 43 43 43 43 43 42 41 41 41 40 39 40 40 41 41 41 42 45 49 51 51 51 51 51 51 51 50 51 51 51 50 50 50 50 50 51 51 51 51 51 52 53 54 55 55 55 55 56
60 57 55 53 51 51 51 50 49 48 48 47 45 43 42 41 41 41 41 40 40 40 40 39 38 38 38 39 40 40 39 39 40 43 47 49 50 50 50 51 53 54 54 55 54 53 52 51 51 51 51 51 50 51 52 53 54 55 56 57 57 57 57
58 55 53 51 50 50 51 49 47 47 46 44 42 41 40 40 39 39 38 38 38 39 39 39 38 38 39 40 42 42 42 41 40 41 44 48 51 52 52 53 54 54 55 55 55 55 54 54 54 54 54 53 53 53 53 54 55 56 56 57 58 58 58
57 54 52 50 49 50 50 47 46 45 43 41 40 40 39 39 38 38 38 38 37 38 39 39 39 39 40 41 42 44 44 44 44 45 45 46 49 51 52 53 53 54 54 54 54 54 54 55 55 56 56 56 56 56 56 56 57 57 57 58 58 59 59
56 52 49 48 48 49 48 47 45 43 40 39 39 39 39 39 39 39 39 39 38 38 38 38 39 41 42 42 42 43 44 45 45 46 46 47 48 49 50 51 52 52 52 52 53 53 53 53 54 54 55 55 55 56 56 57 57 57 58 58 58 59 60
52 49 47 46 47 48 48 46 44 41 38 38 38 39 38 39 39 40 40 39 38 36 36 37 39 41 42 43 43 43 44 44 44 45 46 47 48 48 49 49 50 51 51 52 52 53 53 53 54 54 54 53 54 54 54 55 56 56 56 57 57 58 60
48 46 46 46 46 48 47 45 42 39 37 37 38 39 38 38 39 39 39 38 36 35 34 36 38 41 42 42 43 43 44 44 44 45 46 46 47 48 49 49 51 52 52 53 54 54 53 54 54 53 52 52 52 52 52 53 54 54 54 55 56 57 58
45 45 46 46 46 47 46 44 41 38 36 36 38 38 38 38 38 38 37 35 33 32 32 32 35 38 40 41 41 42 42 43 44 44 45 46 46 47 48 49 50 51 51 52 53 53 53 52 52 51 51 50 50 50 51 51 52 53 53 53 54 56 58
44 45 46 46 47 46 45 43 40 37 35 36 37 38 38 37 37 36 35 33 31 30 29 29 31 33 35 37 39 39 40 41 42 43 44 45 45 46 47 47 48 49 50 50 51 51 50 50 50 49 49 48 48 49 49 50 51 52 52 52 54 56 57
45 46 47 49 48 46 45 43 39 36 35 36 37 38 38 37 36 35 35 33 31 29 28 28 28 28 29 31 32 34 35 37 38 39 41 42 43 44 44 45 45 46 46 47 47 47 47 47 47 47 47 47 47 47 49 50 51 52 53 53 55 56 58
47 48 50 50 49 46 45 42 38 35 35 36 37 38 38 36 35 35 35 34 32 30 29 28 27 28 28 29 30 31 32 33 34 35 36 37 38 39 39 40 41 42 42 43 43 44 45 45 46 47 48 48 48 48 49 51 52 54 55 55 57 59 60
49 50 50 49 47 45 44 41 37 35 35 36 37 38 37 36 35 35 35 35 34 32 30 29 29 29 29 30 31 31 32 33 33 34 35 36 36 36 37 37 39 40 40 42 43 44 45 46 47 48 49 50 51 51 52 53 55 56 57 58 59 60 60
51 49 49 47 44 43 42 39 37 35 35 36 37 38 37 37 36 36 36 36 35 33 32 31 31 31 31 31 32 32 33 34 34 35 35 36 36 36 37 38 39 40 41 42 44 45 47 48 49 51 52 52 53 54 55 56 57 58 59 59 60 61 62
49 47 45 43 42 41 40 39 37 35 35 36 37 37 37 37 36 37 37 36 36 35 34 34 33 33 33 33 33 34 35 35 36 37 37 37 38 38 39 40 41 42 43 44 46 47 49 51 52 53 54 55 56 57 57 58 59 60 60 61 62 63 64
46 44 42 41 40 39 39 39 37 35 35 36 37 38 38 38 37 37 37 37 37 37 36 36 36 35 35 35 36 36 37 38 38 39 40 40 41 41 42 43 44 45 46 47 49 50 52 54 55 55 56 57 58 59 60 61 62 62 63 64 65 66 66
44 41 40 40 39 38 38 39 37 36 35 36 37 39 39 39 39 38 37 38 38 39 39 38 38 38 39 40 40 41 41 41 42 43 43 44 44 45 46 47 47 48 49 50 52 53 55 56 58 58 59 60 61 62 63 64 65 65 66 66 67 68 69
41 39 39 39 38 37 38 38 37 36 36 36 38 39 40 40 40 40 39 40 41 42 43 43 42 43 43 44 44 44 44 45 45 46 46 47 48 48 49 50 50 51 52 54 55 56 58 59 60 61 62 63 64 65 66 67 67 68 68 69 70 70 71
40 38 39 38 37 37 38 39 38 37 37 38 39 40 41 42 42 43 43 44 45 46 47 47 46 46 47 47 47 46 47 48 48 49 49 50 50 51 51 52 53 54 55 56 58 59 60 61 63 64 64 65 66 67 68 69 70 70 70 71 72 72 73
40 38 38 37 36 36 37 39 39 39 39 40 41 42 43 44 46 47 47 48 49 50 50 49 49 49 49 49 49 50 51 51 51 52 52 53 53 53 54 55 55 56 57 59 60 61 62 63 65 66 66 67 68 69 70 71 71 71 72 73 73 73 73
40 39 38 38 37 37 38 39 41 41 42 43 44 45 46 47 48 48 49 50 50 51 51 51 52 52 52 52 53 54 54 55 55 56 56 57 57 57 57 57 58 59 60 61 62 62 63 65 66 67 68 69 69 70 71 72 72 72 73 74 74 73 74
42 41 40 39 39 40 40 41 43 44 45 46 47 48 49 49 49 50 51 52 53 53 54 54 55 56 56 56 56 57 57 58 58 59 60 60 60 60 60 61 61 61 62 63 64 64 65 66 67 68 69 70 70 71 72 72 73 73 74 74 75 74 75
44 43 42 42 42 42 43 44 46 48 49 50 50 51 52 52 53 54 55 56 57 57 57 57 58 59 59 60 59 59 60 61 62 62 63 63 63 63 64 64 64 65 65 65 66 66 67 68 69 69 70 71 71 72 73 73 74 74 74 75 76 76 76
46 45 45 45 45 45 46 47 49 50 51 52 53 54 54 55 56 56 57 58 58 59 59 59 60 61 61 61 62 62 63 64 64 64 65 65 66 66 66 66 67 67 67 67 67 68 68 69 70 70 70 71 71 72 73 74 75 75 76 77 77 78 78
49 48 49 49 48 48 49 50 52 52 53 54 55 56 56 57 57 57 58 58 58 59 60 60 61 61 62 63 63 64 65 65 65 66 66 66 67 67 67 67 68 68 68 69 69 70 70 70 70 71 71 72 73 73 75 76 77 78 78 79 80 80 80
52 52 51 52 52 52 52 53 54 54 55 56 57 57 57 58 58 58 59 59 59 60 60 60 61 62 62 63 64 65 65 65 65 66 66 66 66 67 67 68 69 69 70 70 71 71 71 71 72 72 73 74 75 76 77 78 79 80 80 81 81 81 81
55 55 55 55 55 55 56 56 56 57 57 58 58 58 58 58 58 59 59 60 60 60 61 61 61 62 63 63 64 64 64 64 65 65 66 66 66 67 68 68 69 69 70 71 71 72 72 73 74 74 75 76 77 77 78 79 80 81 82 82 82 82 82
56 57 57 57 57 57 57 57 58 59 59 60 60 59 59 59 60 60 61 62 63 63 63 63 64 64 64 64 63 63 63 64 65 66 67 67 68 68 68 68 69 70 71 72 73 73 74 74 75 76 77 78 79 79 80 81 82 83 83 84 84 84 84
56 56 57 58 59 59 59 59 59 59 60 60 60 60 60 61 62 63 64 64 65 65 65 65 65 65 65 65 65 65 65 66 67 68 69 69 69 69 69 71 72 73 73 74 74 75 75 76 77 79 80 80 81 82 82 83 84 85 85 86 86 86 87
57 56 56 57 59 61 62 62 62 62 61 61 61 62 63 64 65 65 65 65 65 65 65 65 65 66 66 67 67 67 68 68 69 69 70 70 71 72 73 74 75 75 75 76 76 77 78 79 80 82 83 83 84 84 85 86 87 87 88 88 89 89 89
Wind_Direction
288 291 295 298 301 304 305 306 306 305 303 302 298 293 285 279 276 276 275 274 272 268 265 263 262 262 262 263 265 266 267 267 265 263 262 261 260 260 260 260 259 259 260 263 264 266 267 267 269 271 272 273 273 273 276 277 274 271 270 270 270 271 271
289 292 296 299 302 305 307 307 306 304 302 299 296 290 283 278 277 277 276 275 273 270 268 265 263 262 262 262 262 263 265 267 267 266 266 264 260 259 258 256 254 255 256 258 260 262 264 265 267 270 272 274 275 274 275 274 272 271 270 270 270 271 272
291 294 298 301 304 307 308 307 305 302 299 297 292 286 282 279 279 279 277 276 275 273 270 268 266 264 263 262 263 263 263 264 265 265 267 267 263 259 258 255 253 253 254 256 258 261 263 264 267 271 274 275 275 274 273 272 272 272 272 272 272 273 273
292 296 300 304 306 308 308 307 304 300 296 293 288 284 282 281 281 280 279 277 276 275 272 270 267 266 265 264 263 263 263 263 263 263 264 266 265 263 261 259 257 257 258 260 262 264 266 267 269 272 272 271 271 270 270 271 272 272 273 274 274 274 274
294 298 302 305 307 308 308 305 301 297 292 288 285 284 283 283 282 282 281 280 278 276 273 271 268 267 266 266 265 264 263 263 262 262 262 262 263 264 264 263 262 263 263 264 265 266 266 267 268 268 267 266 267 267 268 270 272 273 274 274 274 274 274
297 300 303 306 307 308 307 303 298 293 290 287 286 285 284 284 283 283 283 282 279 276 273 271 269 266 265 266 266 265 263 262 262 262 262 262 262 263 263 264 265 266 265 264 264 263 264 264 265 265 266 266 266 267 269 270 272 272 273 273 273 273 273
300 302 305 307 308 308 305 300 295 292 290 289 287 286 285 285 285 285 284 282 279 276 273 270 268 266 264 263 265 266 266 264 262 260 260 262 262 262 262 263 265 265 263 262 262 262 262 262 263 264 265 265 266 267 268 270 270 271 271 270 270 270 271
303 304 306 307 308 306 302 296 292 292 291 290 288 286 286 287 287 286 284 282 279 276 273 269 266 265 264 263 264 266 267 267 265 261 258 259 261 261 261 262 262 262 262 262 263 263 263 263 263 264 265 265 266 267 268 268 268 269 270 270 270 270 271
304 306 307 307 307 303 297 293 291 292 292 290 288 287 287 288 287 286 285 283 281 277 272 269 265 263 262 260 260 262 262 263 265 262 257 256 257 258 259 260 259 260 261 262 264 265 265 266 266 267 267 268 268 268 268 268 269 270 270 271 271 271 272
306 306 306 306 303 298 293 291 291 291 291 289 287 287 288 287 286 285 285 284 283 279 274 269 264 261 259 258 257 259 259 259 260 259 257 256 256 256 257 259 259 261 263 264 265 267 268 269 269 270 270 270 270 270 270 271 271 271 271 271 271 271 271
306 305 305 302 298 293 291 290 290 290 289 286 286 286 286 285 285 284 284 284 284 282 276 269 263 259 259 260 259 258 258 259 259 259 259 259 259 259 259 260 261 263 265 267 268 270 271 271 272 272 271 271 271 272 272 272 272 271 271 271 271 271 271
305 303 301 296 292 290 290 290 289 288 286 284 284 285 284 284 284 284 284 283 283 282 276 269 263 259 260 262 261 259 260 262 263 263 262 262 262 263 263 263 264 266 267 269 270 271 272 272 272 272 272 271 271 271 271 271 271 271 271 271 271 271 271
302 299 295 290 288 290 291 288 286 285 282 281 282 283 283 283 284 284 284 282 281 280 275 268 264 262 262 263 263 262 263 265 266 266 265 265 265 265 265 265 266 267 268 269 269 269 270 271 272 272 272 272 271 271 271 271 271 271 271 271 271 271 271
297 293 289 286 288 291 290 286 283 281 278 278 281 281 281 282 283 283 283 281 278 277 274 269 266 264 264 264 264 264 265 265 265 265 266 266 266 265 265 265 266 266 267 267 267 268 269 271 272 272 272 272 272 272 273 272 272 273 273 273 273 273 273
291 288 286 286 289 291 288 283 280 277 275 276 279 279 280 281 282 282 280 278 276 274 273 271 268 266 265 264 264 265 265 265 265 265 265 265 265 265 265 265 265 266 266 266 267 268 270 271 272 272 272 272 273 273 273 273 274 274 274 274 274 274 274
287 285 285 287 290 289 286 281 277 273 273 276 277 278 278 279 280 279 277 274 273 272 272 272 271 270 268 267 266 266 266 266 266 266 266 266 265 266 266 267 267 267 267 267 268 270 270 271 271 271 271 271 272 272 272 273 273 273 274 274 274 274 274
287 286 286 288 290 288 284 280 274 270 271 274 276 277 277 277 277 276 274 272 271 270 271 271 272 273 272 271 270 269 269 268 268 268 268 268 268 268 268 269 269 268 268 269 270 270 270 271 271 271 271 272 272 272 272 272 272 273 273 274 274 274 275
290 289 288 288 288 286 283 277 271 269 271 274 275 275 275 275 275 275 273 272 271 270 271 272 273 274 274 274 274 273 273 272 271 271 271 270 270 270 270 270 270 270 270 271 271 272 272 272 272 272 273 273 273 273 273 273 273 273 274 274 275 275 276
294 290 287 286 284 283 281 275 269 269 272 274 274 274 273 274 274 274 274 273 271 271 271 272 273 274 275 276 276 276 275 274 274 273 273 272 272 272 272 272 272 272 273 273 273 273 273 273 273 274 274 274 275 275 275 274 274 274 275 275 276 276 277
294 290 288 284 280 280 278 273 269 269 271 272 272 272 272 272 273 274 273 272 272 271 271 271 271 272 273 275 276 276 276 276 275 275 275 275 275 275 275 275 275 275 275 274 274 274 274 274 274 274 275 275 275 276 276 276 276 276 276 277 277 277 278
292 290 288 283 279 279 277 272 269 269 271 271 271 271 271 272 272 273 273 272 272 272 271 271 271 272 273 274 274 275 275 275 275 276 276 276 276 276 276 276 276 276 276 276 275 275 274 273 274 274 275 275 275 276 276 276 277 277 278 278 278 279 279
291 290 287 282 278 278 277 272 269 270 271 271 271 271 270 270 271 271 272 272 272 272 272 271 272 272 273 274 274 274 275 275 275 276 276 276 277 277 277 277 277 277 277 277 276 276 275 275 275 276 276 276 276 277 277 277 278 278 279 279 279 280 281
289 287 285 281 277 277 276 273 270 270 272 272 272 272 271 270 270 270 270 271 272 272 272 272 273 274 274 275 275 275 275 276 276 277 277 277 277 278 278 278 278 278 279 278 278 278 278 278 278 278 278 279 279 279 279 279 280 280 280 281 281 282 282
286 284 283 279 275 276 276 273 270 270 271 272 273 273 272 272 272 271 271 272 272 274 274 274 275 276 276 276 276 276 276 276 277 277 277 278 278 278 278 279 279 279 279 279 279 279 279 279 280 280 280 280 281 281 281 281 281 281 282 282 282 282 282
283 282 282 279 275 275 276 273 270 270 271 272 273 273 273 274 274 273 273 273 274 275 276 277 277 277 277 277 277 276 276 276 276 276 277 277 278 278 278 278 279 279 278 278 278 279 279 279 279 280 280 280 280 280 280 281 281 281 282 282 282 282 283
283 281 281 279 276 275 275 274 273 272 272 272 273 273 274 274 275 275 275 275 276 277 277 278 278 277 277 277 277 276 276 276 277 277 277 277 277 277 277 277 277 277 277 277 277 277 278 278 278 278 279 279 279 279 280 280 281 281 282 282 282 283 284
284 281 280 279 277 275 273 273 273 273 273 273 273 273 273 274 275 276 276 276 277 277 278 278 278 277 277 276 276 276 277 277 278 278 278 278 278 278 278 278 277 277 276 276 277 277 277 277 277 278 278 278 279 279 280 280 281 282 283 283 283 284 285
284 282 281 279 278 277 275 274 273 273 272 273 273 273 274 274 275 276 276 276 277 277 277 278 278 278 277 277 276 277 277 277 278 278 279 279 279 279 279 278 278 278 277 278 278 278 277 277 277 278 278 278 279 279 280 281 282 282 283 284 284 285 285
284 283 282 280 279 278 277 276 275 274 274 274 275 275 276 276 276 276 276 277 277 277 277 277 278 278 278 277 277 277 277 277 278 278 279 279 279 280 279 279 279 279 278 279 279 278 277 277 277 278 278 279 279 280 281 282 283 283 284 285 285 285 286
285 282 281 280 278 277 276 275 274 274 274 275 275 275 275 275 275 276 276 277 277 277 277 277 277 277 277 276 276 276 277 277 278 279 279 279 279 279 279 279 279 279 279 279 279 278 278 278 278 279 279 280 281 282 283 284 284 285 285 285 286 286 286
285 282 279 278 277 276 275 274 274 274 274 274 274 274 275 275 276 277 278 278 278 278 277 276 276 276 276 276 276 276 276 277 278 278 278 278 279 279 278 278 278 278 278 279 279 279 279 280 280 281 282 283 283 284 284 285 285 285 285 285 285 285 285
286 284 282 280 279 277 275 274 274 273 273 273 274 275 276 277 278 279 279 279 278 277 276 276 275 275 275 276 276 277 277 278 278 278 278 278 277 277 277 277 277 278 278 279 279 280 281 282 282 283 283 283 283 284 284 284 284 284 284 284 284 284 285
287 285 284 283 282 281 279 279 278 277 277 276 277 277 278 278 279 279 279 279 279 278 277 277 277 277 277 277 277 278 278 279 278 278 277 277 277 277 277 278 279 280 281 281 282 282 282 283 283 283 283 283 283 283 283 284 284 284 284 284 285 285 285
285 284 283 282 282 282 281 280 281 281 281 280 280 280 280 279 280 280 280 280 279 279 279 278 278 278 278 278 278 278 279 279 279 278 278 278 278 279 280 281 282 283 283 283 283 283 283 283 283 283 283 283 283 284 284 284 284 284 285 285 285 285 286
281 280 280 280 280 281 281 280 280 280 281 281 280 280 280 279 279 280 280 280 280 280 279 279 279 278 278 278 278 279 281 281 281 281 281 281 281 282 282 283 283 284 284 283 283 283 283 283 284 284 284 284 284 284 285 285 285 285 285 285 286 286 286
280 279 278 277 277 278 279 280 281 281 282 281 280 279 279 278 278 279 280 281 281 281 281 280 280 280 280 280 281 282 283 284 284 283 283 283 283 283 283 283 284 284 285 285 285 285 285 285 285 285 285 285 285 286 286 286 286 286 286 285 285 285 285
Height
5603 5601 5599 5597 5595 5592 5590 5589 5587 5585 5584 5582 5580 5578 5576 5574 5573 5571 5570 5569 5569 5568 5568 5568 5568 5568 5569 5570 5570 5571 5571 5572 5572 5573 5574 5575 5576 5576 5577 5578 5578 5579 5579 5580 5580 5581 5582 5582 5582 5582 5583 5583 5583 5583 5583 5584 5585 5585 5586 5586 5586 5586 5585
5597 5595 5592 5590 5588 5586 5584 5582 5580 5578 5577 5574 5572 5570 5569 5567 5565 5564 5563 5562 5561 5561 5560 5560 5560 5561 5561 5562 5562 5563 5564 5565 5566 5567 5567 5568 5568 5569 5570 5570 5570 5571 5572 5572 5573 5574 5574 5575 5575 5575 5576 5576 5576 5575 5575 5576 5577 5577 5578 5579 5579 5578 5578
5590 5588 5586 5583 5581 5580 5578 5576 5574 5572 5569 5567 5565 5562 5560 5559 5557 5556 5555 5555 5554 5553 5553 5553 5553 5553 5554 5554 5555 5555 5556 5558 5559 5560 5561 5561 5561 5562 5562 5562 5562 5563 5564 5564 5565 5566 5567 5568 5568 5569 5569 5569 5568 5568 5567 5568 5568 5569 5570 5570 5571 5571 5570
5583 5581 5579 5577 5575 5573 5571 5569 5567 5565 5562 5560 5557 5554 5552 5551 5549 5548 5548 5547 5546 5546 5546 5545 5546 5546 5547 5547 5547 5548 5549 5550 5551 5553 5554 5554 5554 5555 5555 5555 5555 5555 5556 5557 5559 5559 5560 5561 5562 5563 5563 5562 5561 5560 5560 5560 5560 5561 5562 5562 5563 5563 5563
5576 5574 5572 5570 5568 5566 5564 5562 5560 5557 5555 5552 5550 5547 5545 5543 5542 5541 5540 5539 5539 5539 5538 5538 5538 5539 5540 5540 5540 5541 5542 5542 5544 5545 5546 5547 5548 5548 5548 5548 5548 5549 5550 5551 5552 5553 5553 5554 5554 5555 5555 5554 5554 5553 5553 5553 5553 5554 5555 5555 5555 5555 5555
5570 5567 5565 5563 5561 5559 5557 5554 5552 5549 5547 5544 5542 5540 5538 5536 5535 5534 5533 5532 5532 5532 5531 5531 5531 5532 5533 5533 5534 5534 5534 5535 5536 5537 5538 5539 5540 5541 5541 5542 5542 5543 5543 5544 5544 5545 5546 5546 5546 5546 5546 5547 5547 5547 5547 5546 5546 5547 5547 5547 5548 5548 5547
5563 5560 5558 5556 5554 5552 5549 5547 5544 5541 5539 5537 5534 5533 5531 5529 5528 5527 5526 5525 5525 5525 5524 5524 5524 5525 5526 5526 5527 5527 5528 5528 5529 5530 5531 5531 5532 5533 5534 5535 5535 5536 5536 5537 5537 5538 5538 5538 5539 5539 5539 5540 5540 5540 5540 5539 5539 5539 5539 5539 5540 5540 5540
5556 5554 5552 5549 5547 5544 5542 5539 5537 5534 5532 5530 5527 5526 5524 5523 5521 5520 5520 5519 5518 5518 5518 5517 5518 5518 5519 5519 5520 5521 5521 5521 5522 5522 5523 5524 5525 5526 5526 5527 5528 5529 5529 5529 5529 5530 5531 5532 5532 5532 5532 5533 5533 5532 5532 5532 5532 5532 5531 5531 5532 5533 5532
5549 5547 5545 5542 5540 5537 5534 5532 5530 5527 5525 5523 5521 5519 5518 5516 5515 5514 5513 5512 5512 5511 5511 5511 5511 5511 5512 5513 5513 5514 5515 5515 5515 5516 5517 5518 5518 5519 5519 5519 5520 5521 5521 5522 5522 5523 5524 5525 5525 5525 5525 5525 5525 5525 5525 5525 5525 5525 5524 5523 5524 5525 5525
5542 5540 5537 5535 5532 5530 5527 5525 5523 5520 5518 5516 5515 5513 5512 5511 5509 5509 5508 5507 5506 5505 5505 5505 5505 5505 5506 5506 5507 5508 5508 5508 5509 5509 5510 5511 5511 5512 5512 5512 5513 5513 5514 5515 5515 5516 5517 5518 5518 5518 5518 5518 5518 5518 5518 5518 5518 5517 5517 5515 5515 5516 5517
5534 5532 5529 5527 5525 5522 5520 5518 5516 5514 5512 5510 5509 5507 5506 5505 5504 5503 5502 5501 5500 5499 5499 5499 5499 5499 5500 5500 5501 5501 5502 5502 5503 5503 5504 5504 5505 5505 5506 5506 5506 5507 5507 5508 5508 5508 5509 5510 5510 5510 5510 5511 5510 5510 5510 5510 5510 5509 5509 5508 5506 5506 5507
5527 5524 5522 5519 5517 5515 5512 5511 5509 5507 5505 5504 5503 5502 5500 5499 5498 5497 5496 5496 5495 5494 5493 5493 5493 5493 5494 5495 5495 5495 5496 5496 5497 5497 5498 5498 5499 5499 5500 5500 5501 5501 5501 5501 5501 5501 5501 5502 5502 5502 5503 5503 5502 5502 5502 5502 5501 5501 5500 5500 5499 5497 5497
5519 5516 5514 5512 5510 5507 5505 5504 5502 5500 5499 5498 5497 5496 5495 5494 5493 5492 5491 5490 5489 5488 5487 5487 5487 5488 5488 5489 5489 5489 5490 5490 5491 5491 5492 5492 5492 5493 5493 5494 5494 5494 5494 5494 5494 5494 5494 5494 5495 5495 5495 5495 5494 5494 5494 5493 5493 5493 5493 5492 5492 5490 5488
5511 5509 5507 5505 5503 5501 5498 5497 5495 5494 5493 5492 5491 5490 5489 5488 5487 5486 5485 5484 5483 5483 5482 5481 5482 5482 5482 5483 5483 5483 5484 5484 5484 5485 5485 5485 5486 5486 5487 5487 5487 5487 5487 5487 5486 5486 5487 5487 5487 5488 5488 5487 5487 5487 5486 5486 5485 5485 5486 5485 5485 5483 5481
5504 5502 5500 5498 5496 5494 5491 5490 5488 5487 5486 5486 5486 5485 5484 5483 5482 5481 5480 5479 5478 5477 5477 5476 5476 5476 5476 5477 5477 5477 5477 5477 5478 5478 5478 5479 5479 5479 5480 5480 5480 5480 5480 5479 5479 5479 5479 5479 5479 5479 5480 5480 5480 5480 5479 5479 5478 5477 5478 5479 5477 5476 5474
5497 5495 5493 5491 5489 5487 5485 5483 5482 5481 5480 5480 5480 5479 5478 5478 5477 5476 5475 5474 5473 5473 5472 5471 5471 5471 5471 5471 5471 5471 5471 5471 5471 5472 5472 5472 5472 5473 5473 5474 5473 5473 5472 5471 5471 5471 5471 5471 5471 5471 5472 5472 5473 5472 5471 5471 5471 5470 5470 5471 5470 5469 5467
5490 5488 5486 5484 5482 5480 5478 5477 5475 5475 5474 5474 5474 5473 5473 5472 5472 5471 5470 5469 5468 5468 5467 5467 5466 5466 5466 5465 5465 5465 5465 5465 5465 5465 5466 5466 5466 5466 5467 5467 5466 5465 5465 5464 5464 5464 5464 5464 5464 5463 5464 5465 5465 5465 5464 5464 5464 5463 5463 5464 5463 5461 5460
5482 5481 5479 5476 5475 5473 5472 5470 5469 5469 5469 5468 5468 5468 5467 5467 5466 5466 5465 5465 5464 5463 5462 5462 5461 5461 5461 5460 5460 5460 5460 5459 5459 5460 5460 5460 5460 5460 5461 5461 5460 5459 5458 5458 5457 5457 5457 5457 5457 5456 5456 5457 5457 5457 5457 5457 5456 5455 5455 5455 5454 5453 5452
5475 5473 5471 5469 5467 5466 5465 5464 5464 5463 5463 5462 5462 5462 5462 5461 5461 5461 5460 5460 5459 5458 5457 5457 5456 5456 5455 5455 5455 5455 5454 5454 5454 5454 5454 5454 5454 5454 5455 5454 5453 5453 5452 5452 5451 5451 5450 5450 5449 5449 5448 5448 5448 5449 5449 5448 5448 5447 5446 5446 5445 5444 5443
5467 5465 5463 5461 5460 5459 5459 5458 5458 5457 5457 5457 5456 5456 5456 5456 5456 5455 5455 5455 5454 5453 5452 5452 5451 5451 5450 5450 5450 5449 5449 5449 5448 5448 5448 5448 5448 5448 5448 5448 5447 5447 5446 5445 5445 5444 5443 5442 5442 5441 5441 5441 5440 5440 5440 5439 5439 5438 5437 5437 5436 5434 5434
5459 5457 5456 5454 5453 5453 5453 5452 5452 5452 5451 5451 5451 5451 5451 5450 5450 5450 5450 5449 5449 5448 5447 5446 5446 5445 5445 5444 5444 5444 5443 5443 5442 5442 5442 5442 5442 5442 5442 5441 5441 5440 5440 5439 5438 5437 5436 5435 5434 5434 5433 5433 5432 5432 5432 5430 5429 5429 5428 5428 5426 5425 5425
5452 5451 5449 5448 5447 5447 5446 5446 5446 5446 5446 5445 5445 5445 5445 5445 5444 5444 5444 5444 5444 5443 5442 5441 5440 5440 5439 5439 5438 5438 5437 5437 5436 5436 5436 5435 5436 5436 5435 5435 5434 5434 5433 5432 5431 5430 5428 5427 5426 5426 5425 5425 5424 5423 5422 5421 5420 5420 5419 5418 5417 5415 5415
5446 5444 5443 5442 5442 5441 5440 5440 5440 5440 5440 5439 5439 5440 5440 5439 5439 5439 5439 5438 5438 5437 5437 5436 5435 5435 5434 5433 5432 5432 5431 5430 5430 5429 5429 5429 5428 5428 5428 5427 5427 5426 5426 5425 5423 5422 5420 5419 5418 5417 5416 5415 5414 5413 5412 5410 5410 5409 5408 5407 5406 5405 5404
5440 5439 5437 5437 5436 5435 5434 5434 5434 5434 5434 5434 5434 5434 5434 5434 5433 5433 5433 5433 5432 5432 5431 5431 5430 5429 5428 5427 5426 5425 5424 5423 5423 5422 5422 5421 5421 5420 5420 5420 5419 5418 5418 5417 5415 5414 5412 5410 5409 5408 5407 5406 5404 5403 5401 5400 5399 5398 5397 5396 5395 5394 5393
5435 5433 5432 5431 5430 5429 5428 5428 5428 5428 5428 5428 5427 5427 5428 5428 5427 5427 5427 5426 5426 5425 5425 5424 5424 5422 5421 5420 5419 5418 5417 5416 5415 5415 5414 5413 5413 5412 5412 5411 5411 5410 5409 5408 5406 5405 5404 5402 5400 5399 5398 5397 5395 5393 5391 5390 5389 5388 5386 5385 5384 5383 5381
5429 5427 5426 5425 5424 5423 5422 5422 5422 5422 5422 5422 5421 5420 5421 5421 5420 5420 5419 5419 5418 5418 5418 5417 5416 5415 5414 5413 5411 5410 5409 5408 5407 5407 5406 5405 5405 5404 5403 5403 5402 5401 5400 5399 5397 5397 5396 5393 5391 5390 5389 5387 5386 5384 5381 5380 5379 5378 5375 5374 5373 5373 5371
5423 5422 5420 5419 5418 5417 5416 5416 5416 5416 5416 5415 5414 5413 5413 5413 5413 5412 5412 5411 5411 5410 5410 5409 5408 5407 5406 5404 5403 5402 5401 5400 5399 5398 5397 5396 5396 5395 5394 5393 5393 5392 5390 5389 5388 5387 5386 5384 5382 5381 5379 5377 5376 5374 5371 5369 5370 5368 5365 5363 5362 5362 5360
5417 5415 5414 5413 5412 5411 5410 5410 5410 5409 5408 5407 5407 5406 5405 5405 5405 5404 5403 5403 5402 5402 5402 5401 5400 5398 5397 5396 5394 5393 5392 5391 5390 5389 5388 5387 5386 5386 5385 5384 5383 5381 5380 5379 5378 5378 5376 5374 5372 5371 5369 5367 5366 5363 5360 5359 5358 5357 5354 5352 5351 5351 5349
5409 5408 5407 5406 5405 5404 5404 5403 5403 5402 5400 5400 5399 5398 5398 5397 5397 5396 5395 5394 5394 5394 5393 5392 5391 5389 5388 5386 5385 5384 5383 5382 5381 5380 5379 5378 5377 5376 5375 5373 5372 5371 5369 5369 5368 5367 5365 5363 5362 5360 5358 5356 5355 5353 5349 5348 5347 5345 5343 5341 5339 5338 5337
5401 5400 5399 5398 5398 5397 5397 5396 5395 5394 5393 5392 5391 5391 5390 5388 5388 5387 5387 5386 5385 5385 5384 5383 5381 5380 5379 5377 5376 5375 5373 5372 5371 5370 5369 5367 5366 5365 5364 5362 5361 5360 5359 5358 5357 5356 5354 5353 5351 5350 5347 5345 5344 5342 5338 5336 5335 5333 5331 5329 5327 5326 5324
5393 5392 5391 5390 5390 5389 5389 5388 5387 5385 5384 5384 5383 5382 5381 5380 5379 5378 5378 5377 5376 5375 5374 5373 5371 5370 5369 5367 5366 5365 5363 5362 5362 5360 5359 5357 5356 5354 5353 5352 5350 5349 5348 5347 5346 5344 5343 5341 5340 5338 5336 5334 5332 5330 5327 5324 5322 5320 5319 5317 5315 5313 5312
5385 5384 5383 5381 5381 5380 5379 5379 5378 5377 5376 5375 5374 5373 5372 5372 5371 5370 5369 5368 5367 5366 5364 5363 5361 5360 5358 5357 5356 5354 5353 5352 5351 5350 5348 5347 5346 5344 5342 5341 5339 5338 5337 5336 5334 5332 5331 5329 5327 5326 5325 5322 5320 5319 5316 5313 5311 5308 5306 5304 5302 5300 5298
5376 5375 5374 5373 5372 5371 5370 5369 5368 5367 5366 5365 5365 5364 5363 5363 5362 5361 5360 5358 5357 5356 5354 5353 5351 5349 5348 5346 5345 5344 5343 5342 5341 5340 5338 5337 5336 5334 5332 5330 5328 5327 5326 5324 5322 5321 5319 5317 5315 5314 5312 5310 5308 5306 5304 5302 5299 5295 5292 5291 5289 5286 5284
5367 5366 5365 5364 5363 5362 5361 5360 5359 5357 5356 5355 5355 5354 5354 5353 5352 5351 5350 5349 5347 5345 5344 5342 5341 5339 5338 5336 5335 5335 5333 5332 5331 5330 5328 5327 5325 5323 5321 5319 5317 5315 5314 5312 5310 5309 5307 5305 5303 5301 5299 5298 5296 5293 5291 5289 5286 5282 5279 5277 5275 5273 5271
5359 5357 5356 5355 5353 5353 5352 5351 5350 5349 5348 5346 5345 5345 5344 5343 5342 5341 5340 5338 5337 5335 5333 5332 5331 5329 5328 5326 5325 5325 5323 5322 5321 5319 5317 5316 5314 5312 5310 5308 5306 5303 5301 5299 5298 5296 5294 5292 5290 5288 5286 5284 5283 5281 5278 5276 5273 5269 5266 5264 5261 5259 5257
5350 5348 5347 5346 5345 5344 5343 5342 5341 5340 5338 5337 5336 5335 5334 5333 5332 5331 5329 5328 5326 5324 5322 5321 5320 5319 5317 5316 5315 5314 5312 5311 5309 5308 5306 5304 5303 5301 5299 5297 5295 5292 5289 5287 5285 5283 5281 5279 5277 5275 5272 5270 5269 5267 5265 5262 5259 5256 5253 5250 5247 5245 5243